Date,TemperatureHighF,TemperatureAvgF,TemperatureLowF,DewpointHighF,DewpointAvgF,DewpointLowF,HumidityHigh,HumidityAvg,HumidityLow,PressureMaxIn,PressureMinIn,WindSpeedMaxMPH,WindSpeedAvgMPH,GustSpeedMaxMPH,PrecipitationSumIn
2013-2-1,21,19,17,18,14,11,92,78,70,30.09,29.60,19,8,28,0.00
2013-2-2,20,17,14,17,12,8,92,82,68,30.10,29.89,8,3,15,0.00
2013-2-3,26,19,11,22,16,9,95,91,80,29.89,29.69,9,2,16,0.00
2013-2-4,20,19,18,16,13,8,90,77,64,29.85,29.75,19,6,28,0.00
2013-2-5,33,23,15,24,18,13,93,83,64,29.87,29.74,4,0,6,0.00
2013-2-6,27,23,16,25,18,9,96,80,63,30.28,29.77,16,4,29,0.00
2013-2-7,32,24,14,21,16,10,91,72,59,30.36,30.04,16,4,23,0.00
2013-2-8,34,31,21,32,28,20,99,90,69,30.04,29.67,23,8,30,0.00
2013-2-9,21,17,15,20,15,-100,96,93,91,30.34,29.83,14,-5,23,0.00
2013-2-10,36,24,10,25,18,8,97,80,55,30.36,29.98,22,6,27,0.04
2013-2-11,43,36,32,39,32,22,96,85,68,29.99,29.49,23,13,30,0.04
2013-2-12,35,33,30,30,27,24,88,80,74,29.85,29.60,25,11,35,0.00
2013-2-13,43,32,27,31,24,23,84,75,53,29.81,29.60,8,2,13,0.00
2013-2-14,43,33,25,34,28,22,95,82,56,29.84,29.67,13,5,20,0.01
2013-2-15,37,34,26,34,28,22,94,77,65,29.91,29.70,18,7,23,0.00
2013-2-16,26,23,20,23,17,12,90,79,67,29.93,29.79,9,3,17,0.00
2013-2-17,20,15,11,12,10,5,91,80,67,30.03,29.76,23,7,29,0.01
2013-2-18,32,20,11,19,13,9,91,76,56,30.19,29.93,15,5,24,0.00
2013-2-19,36,32,26,34,26,17,98,79,61,29.93,29.48,22,11,34,0.02
2013-2-20,26,21,19,20,16,12,94,80,68,29.93,29.65,25,11,34,0.00
2013-2-21,19,17,14,18,14,10,94,88,80,30.32,29.89,16,6,27,0.00
2013-2-22,35,27,17,28,22,15,95,84,68,30.31,29.98,24,7,33,0.00
2013-2-23,37,34,31,36,32,27,98,93,81,29.99,29.75,20,8,26,0.05
2013-2-24,32,30,29,30,27,24,96,88,79,29.93,29.74,13,5,20,0.00
2013-2-25,35,32,29,30,28,25,94,86,73,30.12,29.93,10,4,16,0.00
2013-2-26,42,34,27,33,29,24,97,81,64,30.14,29.75,16,5,19,0.02
2013-2-27,38,35,33,37,34,32,100,99,95,29.77,29.43,8,2,12,0.64
2013-2-28,41,34,32,41,34,32,100,97,87,29.57,29.44,7,2,12,0.21